TimeCDT,TemperatureF,Dew PointF,Humidity,Sea Level PressureIn,VisibilityMPH,Wind Direction,Wind SpeedMPH,Gust SpeedMPH,PrecipitationIn,Events,Conditions,WindDirDegrees,DateUTC
12:54 AM,57.9,51.1,78,29.56,10.0,South,18.4,25.3,N/A,,Clear,190,2012-04-16 05:54:00
1:54 AM,57.2,48.2,72,29.56,10.0,South,17.3,28.8,N/A,,Clear,190,2012-04-16 06:54:00
2:54 AM,57.0,48.0,72,29.55,10.0,SSW,25.3,32.2,N/A,,Scattered Clouds,210,2012-04-16 07:54:00
3:54 AM,54.0,41.0,62,29.62,10.0,WSW,18.4,32.2,N/A,,Overcast,240,2012-04-16 08:54:00
4:54 AM,54.0,41.0,62,29.64,10.0,SW,18.4,27.6,N/A,,Overcast,230,2012-04-16 09:54:00
5:54 AM,53.1,41.0,64,29.68,10.0,WSW,19.6,31.1,N/A,,Overcast,250,2012-04-16 10:54:00
6:54 AM,51.1,39.9,66,29.76,10.0,WSW,23.0,29.9,N/A,,Overcast,250,2012-04-16 11:54:00
7:18 AM,50.0,39.2,66,29.78,10.0,WSW,20.7,38.0,N/A,,Overcast,250,2012-04-16 12:18:00
7:54 AM,48.9,41.0,74,29.82,10.0,West,21.9,29.9,N/A,,Overcast,260,2012-04-16 12:54:00
8:32 AM,48.2,44.6,87,29.85,10.0,West,16.1,26.5,N/A,,Overcast,270,2012-04-16 13:32:00
8:54 AM,48.9,39.9,71,29.87,10.0,West,20.7,33.4,0.00,,Overcast,270,2012-04-16 13:54:00
9:54 AM,53.1,39.0,59,29.93,10.0,WNW,18.4,43.7,N/A,,Mostly Cloudy,290,2012-04-16 14:54:00
10:54 AM,55.0,39.9,57,29.99,10.0,West,21.9,35.7,N/A,,Mostly Cloudy,280,2012-04-16 15:54:00
11:54 AM,55.9,41.0,57,30.02,10.0,WNW,18.4,29.9,N/A,,Mostly Cloudy,290,2012-04-16 16:54:00
12:54 PM,59.0,42.1,53,30.05,10.0,West,18.4,26.5,N/A,,Scattered Clouds,270,2012-04-16 17:54:00
1:54 PM,61.0,42.1,50,30.07,10.0,West,17.3,25.3,N/A,,Partly Cloudy,270,2012-04-16 18:54:00
2:54 PM,63.0,42.1,46,30.08,10.0,West,17.3,27.6,N/A,,Partly Cloudy,280,2012-04-16 19:54:00
3:54 PM,63.0,41.0,45,30.09,10.0,WNW,15.0,25.3,N/A,,Partly Cloudy,290,2012-04-16 20:54:00
4:54 PM,63.0,39.0,41,30.11,10.0,WNW,16.1,-,N/A,,Clear,290,2012-04-16 21:54:00
5:54 PM,62.6,39.2,42,30.14,10.0,WNW,15.0,-,N/A,,Clear,300,2012-04-16 22:54:00
6:54 PM,61.0,39.9,46,30.16,10.0,West,11.5,-,N/A,,Clear,280,2012-04-16 23:54:00
7:54 PM,55.0,39.9,57,30.18,10.0,West,3.5,-,N/A,,Clear,270,2012-04-17 00:54:00
8:54 PM,55.0,39.0,55,30.19,10.0,West,4.6,-,N/A,,Clear,260,2012-04-17 01:54:00
9:54 PM,51.1,39.9,66,30.21,10.0,SSW,3.5,-,N/A,,Clear,210,2012-04-17 02:54:00
10:54 PM,50.0,42.1,74,30.22,10.0,South,4.6,-,N/A,,Clear,190,2012-04-17 03:54:00
11:54 PM,48.0,39.9,74,30.23,10.0,South,3.5,-,N/A,,Clear,170,2012-04-17 04:54:00